Location: Mahannah Oil Field
(37.4664°N, 96.6003°W)
Time: 03:33:45
(UTC+00:00)

deb Explorer IX - Pass Details

Date: 24 June 2021
Orbit: 544 x 1093 km, 38.8° (Epoch: 02 August)

Event Time Altitude Azimuth Distance (km) Brightness Sun altitude
Exits shadow 10:27:41 - 232° (SW) 2,149 ? -7.2°
Reaches altitude 10° 10:27:56 10° 231° (SW) 2,052 ? -7.2°
Maximum altitude 10:32:26 48° 158° (SSE) 785 ? -6.5°
Drops below altitude 10° 10:36:29 10° 83° (E) 1,850 ? -5.8°
Sets 10:38:42 0° 78° (ENE) 2,716 ? -5.5°
